Terug naar catalogus

STARLINK-5195

ActiefCommunicatieVLEO
NORAD 54051·PAYLOAD·🇺🇸 United States

Gelanceerd Oct 20, 2022 vanaf Cape Canaveral Space Force Station

Loading…

Volgende Passages (komende 24 uur)

TLE

VersSource: CelesTrak SupGP

Epoch: Sep 14, 2026, 21:08 UTC

1 54051C 22136A   26257.88104167  .00367720  00000+0  16824-1 0  2579
2 54051  53.1608 214.5521 0001454  90.9774 270.0880 15.19823459    13

Volg STARLINK-5195 in realtime met AllMySat

Download on the App Store